Powrót do katalogu

NOAA 16 DEB

AktywnySSO
NORAD 42421·DEBRIS·🇺🇸 United States

Wystrzelony Sep 21, 2000 z Vandenberg Space Force Base

Loading…

Następne Przeloty (najbliższe 24 godziny)

TLE

Starzejące sięSource: Space-Track

Epoka: Sep 5, 2026, 03:58 UTC

1 42421U 00055TR  26248.16538815  .00001556  00000-0  89565-3 0  9995
2 42421  98.8924 224.7277 0076396 229.4555 129.9946 14.09241140501629

Śledź NOAA 16 DEB w czasie rzeczywistym z AllMySat

Download on the App Store